owner,sensor,date,latitude,longitude,vertical_datum,sea_water_temperature,qcFlag
Shell,ioos:station:wmo:42906:2,2021-12-01T00:04:00Z,26.4494,-90.7832,9.2,26.9,11111222
Shell,ioos:station:wmo:42906:2,2021-12-01T00:14:00Z,26.4494,-90.7832,9.3,26.9,11111222
Shell,ioos:station:wmo:42906:2,2021-12-01T00:24:00Z,26.4494,-90.7832,9.2,26.9,11111222
Shell,ioos:station:wmo:42906:2,2021-12-01T00:35:00Z,26.4494,-90.7832,9.3,26.9,11111222
Shell,ioos:station:wmo:42906:2,2021-12-01T00:45:00Z,26.4494,-90.7832,9.3,26.9,11111222
Shell,ioos:station:wmo:42906:2,2021-12-01T00:55:00Z,26.4494,-90.7832,9.4,26.9,11111222
Shell,ioos:station:wmo:42906:2,2021-12-01T01:05:00Z,26.4494,-90.7832,9.4,26.9,11111222
Shell,ioos:station:wmo:42906:2,2021-12-01T01:15:00Z,26.4494,-90.7832,9.3,26.9,11111222
Shell,ioos:station:wmo:42906:2,2021-12-01T01:25:00Z,26.4494,-90.7832,9.3,26.9,11111222
Shell,ioos:station:wmo:42906:2,2021-12-01T01:35:00Z,26.4494,-90.7832,9.3,26.9,11111222
Shell,ioos:station:wmo:42906:2,2021-12-01T01:45:00Z,26.4494,-90.7832,9.3,26.9,11111222
Shell,ioos:station:wmo:42906:2,2021-12-01T01:55:00Z,26.4494,-90.7832,9.3,26.9,11111222
Shell,ioos:station:wmo:42906:2,2021-12-01T02:05:00Z,26.4494,-90.7832,9.3,26.9,11111222
Shell,ioos:station:wmo:42906:2,2021-12-01T02:15:00Z,26.4494,-90.7832,9.3,26.9,11111222
Shell,ioos:station:wmo:42906:2,2021-12-01T02:25:00Z,26.4494,-90.7832,9.3,26.9,11111222
Shell,ioos:station:wmo:42906:2,2021-12-01T02:35:00Z,26.4494,-90.7832,9.3,26.9,11111222
Shell,ioos:station:wmo:42906:2,2021-12-01T02:45:00Z,26.4494,-90.7832,9.2,26.9,11111222
Shell,ioos:station:wmo:42906:2,2021-12-01T02:55:00Z,26.4494,-90.7832,9.2,26.9,11111222
Shell,ioos:station:wmo:42906:2,2021-12-01T03:05:00Z,26.4494,-90.7832,9.2,26.9,11111222
Shell,ioos:station:wmo:42906:2,2021-12-01T03:15:00Z,26.4494,-90.7832,9.2,26.9,11111222
Shell,ioos:station:wmo:42906:2,2021-12-01T03:25:00Z,26.4494,-90.7832,9.2,26.9,11111222
Shell,ioos:station:wmo:42906:2,2021-12-01T03:35:00Z,26.4494,-90.7832,9.2,26.9,11111222
Shell,ioos:station:wmo:42906:2,2021-12-01T03:45:00Z,26.4494,-90.7832,9.2,26.9,11111222
Shell,ioos:station:wmo:42906:2,2021-12-01T03:55:00Z,26.4494,-90.7832,9.2,26.9,11111222
Shell,ioos:station:wmo:42906:2,2021-12-01T04:05:00Z,26.4494,-90.7832,9.1,26.9,11111222
Shell,ioos:station:wmo:42906:2,2021-12-01T04:15:00Z,26.4494,-90.7832,9.0,26.9,11111222
Shell,ioos:station:wmo:42906:2,2021-12-01T04:25:00Z,26.4494,-90.7832,8.9,26.9,11111222
Shell,ioos:station:wmo:42906:2,2021-12-01T04:35:00Z,26.4494,-90.7832,8.9,26.9,11111222
Shell,ioos:station:wmo:42906:2,2021-12-01T04:45:00Z,26.4494,-90.7832,9.0,26.9,11111222
Shell,ioos:station:wmo:42906:2,2021-12-01T04:55:00Z,26.4494,-90.7832,9.0,26.9,11111222
Shell,ioos:station:wmo:42906:2,2021-12-01T05:05:00Z,26.4494,-90.7832,9.0,26.9,11111222
Shell,ioos:station:wmo:42906:2,2021-12-01T05:15:00Z,26.4494,-90.7832,8.9,26.9,11111222
Shell,ioos:station:wmo:42906:2,2021-12-01T05:25:00Z,26.4494,-90.7832,8.9,26.9,11111222
Shell,ioos:station:wmo:42906:2,2021-12-01T05:35:00Z,26.4494,-90.7832,8.9,26.9,11111222
Shell,ioos:station:wmo:42906:2,2021-12-01T05:45:00Z,26.4494,-90.7832,8.9,26.9,11111222
Shell,ioos:station:wmo:42906:2,2021-12-01T05:55:00Z,26.4494,-90.7832,8.9,26.9,11111222
Shell,ioos:station:wmo:42906:2,2021-12-01T06:05:00Z,26.4494,-90.7832,8.9,26.9,11111222
Shell,ioos:station:wmo:42906:2,2021-12-01T06:15:00Z,26.4494,-90.7832,8.8,26.9,11111222
Shell,ioos:station:wmo:42906:2,2021-12-01T06:25:00Z,26.4494,-90.7832,8.8,26.9,11111222
Shell,ioos:station:wmo:42906:2,2021-12-01T06:35:00Z,26.4494,-90.7832,8.7,26.9,11111222
Shell,ioos:station:wmo:42906:2,2021-12-01T06:45:00Z,26.4494,-90.7832,8.7,26.9,11111222
Shell,ioos:station:wmo:42906:2,2021-12-01T06:55:00Z,26.4494,-90.7832,9.0,26.9,11111222
Shell,ioos:station:wmo:42906:2,2021-12-01T07:05:00Z,26.4494,-90.7832,9.0,26.9,11111222
Shell,ioos:station:wmo:42906:2,2021-12-01T07:15:00Z,26.4494,-90.7832,9.0,26.9,11111222
Shell,ioos:station:wmo:42906:2,2021-12-01T07:25:00Z,26.4494,-90.7832,9.0,26.9,11111222
Shell,ioos:station:wmo:42906:2,2021-12-01T07:35:00Z,26.4494,-90.7832,9.0,26.9,11111222
Shell,ioos:station:wmo:42906:2,2021-12-01T07:45:00Z,26.4494,-90.7832,9.0,26.9,11111222
Shell,ioos:station:wmo:42906:2,2021-12-01T07:56:00Z,26.4494,-90.7832,9.0,26.9,11111222
Shell,ioos:station:wmo:42906:2,2021-12-01T08:06:00Z,26.4494,-90.7832,8.9,26.9,11111222
Shell,ioos:station:wmo:42906:2,2021-12-01T08:16:00Z,26.4494,-90.7832,8.8,26.9,11111222
Shell,ioos:station:wmo:42906:2,2021-12-01T08:26:00Z,26.4494,-90.7832,8.9,26.9,11111222
Shell,ioos:station:wmo:42906:2,2021-12-01T08:36:00Z,26.4494,-90.7832,8.9,26.9,11111222
Shell,ioos:station:wmo:42906:2,2021-12-01T08:46:00Z,26.4494,-90.7832,8.9,26.9,11111222
Shell,ioos:station:wmo:42906:2,2021-12-01T08:56:00Z,26.4494,-90.7832,8.9,26.9,11111222
Shell,ioos:station:wmo:42906:2,2021-12-01T09:06:00Z,26.4494,-90.7832,8.9,26.9,11111222
Shell,ioos:station:wmo:42906:2,2021-12-01T09:16:00Z,26.4494,-90.7832,8.9,26.9,11111222
Shell,ioos:station:wmo:42906:2,2021-12-01T09:26:00Z,26.4494,-90.7832,8.9,27.0,11111222
Shell,ioos:station:wmo:42906:2,2021-12-01T09:36:00Z,26.4494,-90.7832,8.9,27.0,11111222
Shell,ioos:station:wmo:42906:2,2021-12-01T09:46:00Z,26.4494,-90.7832,9.0,27.0,11111222
Shell,ioos:station:wmo:42906:2,2021-12-01T09:56:00Z,26.4494,-90.7832,9.0,27.0,11111222
Shell,ioos:station:wmo:42906:2,2021-12-01T10:06:00Z,26.4494,-90.7832,9.0,27.0,11111222
Shell,ioos:station:wmo:42906:2,2021-12-01T10:16:00Z,26.4494,-90.7832,9.0,27.0,11111222
Shell,ioos:station:wmo:42906:2,2021-12-01T10:26:00Z,26.4494,-90.7832,9.0,27.0,11111222
Shell,ioos:station:wmo:42906:2,2021-12-01T10:36:00Z,26.4494,-90.7832,9.0,27.0,11111222
Shell,ioos:station:wmo:42906:2,2021-12-01T10:46:00Z,26.4494,-90.7832,9.0,27.0,11111222
Shell,ioos:station:wmo:42906:2,2021-12-01T10:56:00Z,26.4494,-90.7832,8.8,27.0,11111222
Shell,ioos:station:wmo:42906:2,2021-12-01T11:06:00Z,26.4494,-90.7832,8.7,27.0,11111222
Shell,ioos:station:wmo:42906:2,2021-12-01T11:16:00Z,26.4494,-90.7832,8.6,27.0,11111222
Shell,ioos:station:wmo:42906:2,2021-12-01T11:26:00Z,26.4494,-90.7832,8.6,27.0,11111222
Shell,ioos:station:wmo:42906:2,2021-12-01T11:36:00Z,26.4494,-90.7832,8.7,27.0,11111222
Shell,ioos:station:wmo:42906:2,2021-12-01T11:46:00Z,26.4494,-90.7832,8.9,27.0,11111222
Shell,ioos:station:wmo:42906:2,2021-12-01T11:56:00Z,26.4494,-90.7832,8.9,27.0,11111222
Shell,ioos:station:wmo:42906:2,2021-12-01T12:06:00Z,26.4494,-90.7832,8.9,27.0,11111222
Shell,ioos:station:wmo:42906:2,2021-12-01T12:16:00Z,26.4494,-90.7832,8.9,27.0,11111222
Shell,ioos:station:wmo:42906:2,2021-12-01T12:26:00Z,26.4494,-90.7832,8.9,27.0,11111222
Shell,ioos:station:wmo:42906:2,2021-12-01T12:36:00Z,26.4494,-90.7832,8.9,27.0,11111222
Shell,ioos:station:wmo:42906:2,2021-12-01T12:46:00Z,26.4494,-90.7832,8.9,27.0,11111222
Shell,ioos:station:wmo:42906:2,2021-12-01T12:56:00Z,26.4494,-90.7832,8.9,27.1,11111222
Shell,ioos:station:wmo:42906:2,2021-12-01T13:06:00Z,26.4494,-90.7832,8.9,27.1,11111222
Shell,ioos:station:wmo:42906:2,2021-12-01T13:16:00Z,26.4494,-90.7832,9.0,27.1,11111222
Shell,ioos:station:wmo:42906:2,2021-12-01T13:26:00Z,26.4494,-90.7832,9.1,27.1,11111222
Shell,ioos:station:wmo:42906:2,2021-12-01T13:36:00Z,26.4494,-90.7832,9.1,27.1,11111222
Shell,ioos:station:wmo:42906:2,2021-12-01T13:46:00Z,26.4494,-90.7832,9.1,27.0,11111222
Shell,ioos:station:wmo:42906:2,2021-12-01T13:56:00Z,26.4494,-90.7832,9.0,27.0,11111222
Shell,ioos:station:wmo:42906:2,2021-12-01T14:06:00Z,26.4494,-90.7832,8.9,26.9,11111222
Shell,ioos:station:wmo:42906:2,2021-12-01T14:16:00Z,26.4494,-90.7832,9.0,27.0,11111222
Shell,ioos:station:wmo:42906:2,2021-12-01T14:26:00Z,26.4494,-90.7832,9.0,27.0,11111222
Shell,ioos:station:wmo:42906:2,2021-12-01T14:36:00Z,26.4494,-90.7832,9.1,26.9,11111222
Shell,ioos:station:wmo:42906:2,2021-12-01T14:46:00Z,26.4494,-90.7832,9.0,27.0,11111222
Shell,ioos:station:wmo:42906:2,2021-12-01T14:56:00Z,26.4494,-90.7832,9.0,27.0,11111222
Shell,ioos:station:wmo:42906:2,2021-12-01T15:06:00Z,26.4494,-90.7832,8.9,27.0,11111222
Shell,ioos:station:wmo:42906:2,2021-12-01T15:16:00Z,26.4494,-90.7832,9.0,27.0,11111222
Shell,ioos:station:wmo:42906:2,2021-12-01T15:27:00Z,26.4494,-90.7832,9.0,26.9,11111222
Shell,ioos:station:wmo:42906:2,2021-12-01T15:37:00Z,26.4494,-90.7832,9.0,26.9,11111222
Shell,ioos:station:wmo:42906:2,2021-12-01T15:47:00Z,26.4494,-90.7832,9.0,26.9,11111222
Shell,ioos:station:wmo:42906:2,2021-12-01T15:57:00Z,26.4494,-90.7832,9.0,26.9,11111222
Shell,ioos:station:wmo:42906:2,2021-12-01T16:07:00Z,26.4494,-90.7832,9.0,26.9,11111222
Shell,ioos:station:wmo:42906:2,2021-12-01T16:17:00Z,26.4494,-90.7832,9.0,26.9,11111222
Shell,ioos:station:wmo:42906:2,2021-12-01T16:27:00Z,26.4494,-90.7832,8.9,26.9,11111222
Shell,ioos:station:wmo:42906:2,2021-12-01T16:37:00Z,26.4494,-90.7832,8.8,26.9,11111222
Shell,ioos:station:wmo:42906:2,2021-12-01T16:47:00Z,26.4494,-90.7832,8.8,26.9,11111222
Shell,ioos:station:wmo:42906:2,2021-12-01T16:57:00Z,26.4494,-90.7832,8.6,26.9,11111222
Shell,ioos:station:wmo:42906:2,2021-12-01T17:07:00Z,26.4494,-90.7832,8.8,26.9,11111222
Shell,ioos:station:wmo:42906:2,2021-12-01T17:17:00Z,26.4494,-90.7832,8.9,26.9,11111222
Shell,ioos:station:wmo:42906:2,2021-12-01T17:27:00Z,26.4494,-90.7832,8.9,26.9,11111222
Shell,ioos:station:wmo:42906:2,2021-12-01T17:37:00Z,26.4494,-90.7832,8.9,26.9,11111222
Shell,ioos:station:wmo:42906:2,2021-12-01T17:47:00Z,26.4494,-90.7832,8.9,26.9,11111222
Shell,ioos:station:wmo:42906:2,2021-12-01T17:57:00Z,26.4494,-90.7832,8.9,26.9,11111222
Shell,ioos:station:wmo:42906:2,2021-12-01T18:07:00Z,26.4494,-90.7832,8.9,26.9,11111222
Shell,ioos:station:wmo:42906:2,2021-12-01T18:17:00Z,26.4494,-90.7832,8.9,26.9,11111222
Shell,ioos:station:wmo:42906:2,2021-12-01T18:27:00Z,26.4494,-90.7832,8.8,26.9,11111222
Shell,ioos:station:wmo:42906:2,2021-12-01T18:37:00Z,26.4494,-90.7832,8.7,26.9,11111222
Shell,ioos:station:wmo:42906:2,2021-12-01T18:47:00Z,26.4494,-90.7832,8.7,26.9,11111222
Shell,ioos:station:wmo:42906:2,2021-12-01T18:57:00Z,26.4494,-90.7832,8.7,26.9,11111222
Shell,ioos:station:wmo:42906:2,2021-12-01T19:07:00Z,26.4494,-90.7832,8.7,26.9,11111222
Shell,ioos:station:wmo:42906:2,2021-12-01T19:17:00Z,26.4494,-90.7832,8.6,26.9,11111222
Shell,ioos:station:wmo:42906:2,2021-12-01T19:27:00Z,26.4494,-90.7832,8.8,27.0,11111222
Shell,ioos:station:wmo:42906:2,2021-12-01T19:37:00Z,26.4494,-90.7832,8.7,27.0,11111222
Shell,ioos:station:wmo:42906:2,2021-12-01T19:47:00Z,26.4494,-90.7832,8.7,27.0,11111222
Shell,ioos:station:wmo:42906:2,2021-12-01T19:57:00Z,26.4494,-90.7832,8.8,27.0,11111222
Shell,ioos:station:wmo:42906:2,2021-12-01T20:07:00Z,26.4494,-90.7832,8.5,27.0,11111222
Shell,ioos:station:wmo:42906:2,2021-12-01T20:17:00Z,26.4494,-90.7832,8.4,27.0,11111222
Shell,ioos:station:wmo:42906:2,2021-12-01T20:27:00Z,26.4494,-90.7832,8.3,27.0,11111222
Shell,ioos:station:wmo:42906:2,2021-12-01T20:37:00Z,26.4494,-90.7832,8.3,27.0,11111222
Shell,ioos:station:wmo:42906:2,2021-12-01T20:47:00Z,26.4494,-90.7832,8.6,27.0,11111222
Shell,ioos:station:wmo:42906:2,2021-12-01T20:57:00Z,26.4494,-90.7832,8.6,27.0,11111222
Shell,ioos:station:wmo:42906:2,2021-12-01T21:07:00Z,26.4494,-90.7832,8.6,27.1,11111222
Shell,ioos:station:wmo:42906:2,2021-12-01T21:17:00Z,26.4494,-90.7832,8.6,27.1,11111222
Shell,ioos:station:wmo:42906:2,2021-12-01T21:27:00Z,26.4494,-90.7832,8.5,27.1,11111222
Shell,ioos:station:wmo:42906:2,2021-12-01T21:37:00Z,26.4494,-90.7832,8.5,27.1,11111222
Shell,ioos:station:wmo:42906:2,2021-12-01T21:47:00Z,26.4494,-90.7832,8.6,27.1,11111222
Shell,ioos:station:wmo:42906:2,2021-12-01T21:57:00Z,26.4494,-90.7832,8.8,27.1,11111222
Shell,ioos:station:wmo:42906:2,2021-12-01T22:07:00Z,26.4494,-90.7832,8.8,27.1,11111222
Shell,ioos:station:wmo:42906:2,2021-12-01T22:17:00Z,26.4494,-90.7832,8.8,27.1,11111222
Shell,ioos:station:wmo:42906:2,2021-12-01T22:27:00Z,26.4494,-90.7832,8.8,27.1,11111222
Shell,ioos:station:wmo:42906:2,2021-12-01T22:37:00Z,26.4494,-90.7832,8.7,27.1,11111222
Shell,ioos:station:wmo:42906:2,2021-12-01T22:48:00Z,26.4494,-90.7832,8.5,27.0,11111222
Shell,ioos:station:wmo:42906:2,2021-12-01T22:58:00Z,26.4494,-90.7832,8.5,27.1,11111222
Shell,ioos:station:wmo:42906:2,2021-12-01T23:08:00Z,26.4494,-90.7832,8.4,27.1,11111222
Shell,ioos:station:wmo:42906:2,2021-12-01T23:18:00Z,26.4494,-90.7832,8.5,27.1,11111222
Shell,ioos:station:wmo:42906:2,2021-12-01T23:28:00Z,26.4494,-90.7832,8.4,27.1,11111222
Shell,ioos:station:wmo:42906:2,2021-12-01T23:38:00Z,26.4494,-90.7832,8.5,27.1,11111222
Shell,ioos:station:wmo:42906:2,2021-12-01T23:48:00Z,26.4494,-90.7832,8.3,27.1,11111222
Shell,ioos:station:wmo:42906:2,2021-12-01T23:58:00Z,26.4494,-90.7832,8.4,27.1,11111222
Shell,ioos:station:wmo:42906:2,2021-12-02T00:08:00Z,26.4494,-90.7832,8.4,27.1,11111222
Shell,ioos:station:wmo:42906:2,2021-12-02T00:18:00Z,26.4494,-90.7832,8.4,27.1,11111222
Shell,ioos:station:wmo:42906:2,2021-12-02T00:28:00Z,26.4494,-90.7832,8.4,27.1,11111222
Shell,ioos:station:wmo:42906:2,2021-12-02T00:38:00Z,26.4494,-90.7832,8.4,27.1,11111222
Shell,ioos:station:wmo:42906:2,2021-12-02T00:48:00Z,26.4494,-90.7832,8.4,27.1,11111222
Shell,ioos:station:wmo:42906:2,2021-12-02T00:58:00Z,26.4494,-90.7832,8.5,27.1,11111222
Shell,ioos:station:wmo:42906:2,2021-12-02T01:08:00Z,26.4494,-90.7832,8.5,27.1,11111222
Shell,ioos:station:wmo:42906:2,2021-12-02T01:18:00Z,26.4494,-90.7832,8.5,27.1,11111222
Shell,ioos:station:wmo:42906:2,2021-12-02T01:28:00Z,26.4494,-90.7832,8.5,27.1,11111222
Shell,ioos:station:wmo:42906:2,2021-12-02T01:38:00Z,26.4494,-90.7832,8.6,27.1,11111222
Shell,ioos:station:wmo:42906:2,2021-12-02T01:48:00Z,26.4494,-90.7832,8.5,27.1,11111222
Shell,ioos:station:wmo:42906:2,2021-12-02T01:58:00Z,26.4494,-90.7832,8.7,27.1,11111222
Shell,ioos:station:wmo:42906:2,2021-12-02T02:08:00Z,26.4494,-90.7832,8.6,27.1,11111222
Shell,ioos:station:wmo:42906:2,2021-12-02T02:18:00Z,26.4494,-90.7832,8.6,27.1,11111222
Shell,ioos:station:wmo:42906:2,2021-12-02T02:28:00Z,26.4494,-90.7832,8.6,27.1,11111222
Shell,ioos:station:wmo:42906:2,2021-12-02T02:38:00Z,26.4494,-90.7832,8.6,27.1,11111222
Shell,ioos:station:wmo:42906:2,2021-12-02T02:48:00Z,26.4494,-90.7832,8.6,27.1,11111222
Shell,ioos:station:wmo:42906:2,2021-12-02T02:58:00Z,26.4494,-90.7832,8.6,27.1,11111222
Shell,ioos:station:wmo:42906:2,2021-12-02T03:08:00Z,26.4494,-90.7832,8.6,27.1,11111222
Shell,ioos:station:wmo:42906:2,2021-12-02T03:18:00Z,26.4494,-90.7832,8.6,27.1,11111222
Shell,ioos:station:wmo:42906:2,2021-12-02T03:28:00Z,26.4494,-90.7832,8.5,27.1,11111222
Shell,ioos:station:wmo:42906:2,2021-12-02T03:38:00Z,26.4494,-90.7832,8.5,27.1,11111222
Shell,ioos:station:wmo:42906:2,2021-12-02T03:48:00Z,26.4494,-90.7832,8.5,27.1,11111222
Shell,ioos:station:wmo:42906:2,2021-12-02T03:58:00Z,26.4494,-90.7832,8.4,27.1,11111222
Shell,ioos:station:wmo:42906:2,2021-12-02T04:08:00Z,26.4494,-90.7832,8.3,27.1,11111222
Shell,ioos:station:wmo:42906:2,2021-12-02T04:18:00Z,26.4494,-90.7832,8.4,27.1,11111222
Shell,ioos:station:wmo:42906:2,2021-12-02T04:28:00Z,26.4494,-90.7832,8.4,27.1,11111222
Shell,ioos:station:wmo:42906:2,2021-12-02T04:38:00Z,26.4494,-90.7832,8.4,27.1,11111222
Shell,ioos:station:wmo:42906:2,2021-12-02T04:48:00Z,26.4494,-90.7832,8.4,27.1,11111222
Shell,ioos:station:wmo:42906:2,2021-12-02T04:58:00Z,26.4494,-90.7832,8.4,27.1,11111222
Shell,ioos:station:wmo:42906:2,2021-12-02T05:08:00Z,26.4494,-90.7832,8.6,27.0,11111222
Shell,ioos:station:wmo:42906:2,2021-12-02T05:18:00Z,26.4494,-90.7832,8.6,27.0,11111222
Shell,ioos:station:wmo:42906:2,2021-12-02T05:28:00Z,26.4494,-90.7832,8.6,27.0,11111222
Shell,ioos:station:wmo:42906:2,2021-12-02T05:38:00Z,26.4494,-90.7832,8.6,27.0,11111222
Shell,ioos:station:wmo:42906:2,2021-12-02T05:48:00Z,26.4494,-90.7832,8.7,27.0,11111222
Shell,ioos:station:wmo:42906:2,2021-12-02T05:58:00Z,26.4494,-90.7832,8.7,27.0,11111222
Shell,ioos:station:wmo:42906:2,2021-12-02T06:09:00Z,26.4494,-90.7832,8.9,27.0,11111222
Shell,ioos:station:wmo:42906:2,2021-12-02T06:19:00Z,26.4494,-90.7832,8.8,27.0,11111222
Shell,ioos:station:wmo:42906:2,2021-12-02T06:29:00Z,26.4494,-90.7832,8.7,27.0,11111222
Shell,ioos:station:wmo:42906:2,2021-12-02T06:39:00Z,26.4494,-90.7832,8.7,27.0,11111222
Shell,ioos:station:wmo:42906:2,2021-12-02T06:49:00Z,26.4494,-90.7832,8.8,27.0,11111222
Shell,ioos:station:wmo:42906:2,2021-12-02T06:59:00Z,26.4494,-90.7832,8.7,27.0,11111222
Shell,ioos:station:wmo:42906:2,2021-12-02T07:09:00Z,26.4494,-90.7832,8.8,27.1,11111222
Shell,ioos:station:wmo:42906:2,2021-12-02T07:19:00Z,26.4494,-90.7832,8.8,27.1,11111222
Shell,ioos:station:wmo:42906:2,2021-12-02T07:29:00Z,26.4494,-90.7832,8.8,27.1,11111222
Shell,ioos:station:wmo:42906:2,2021-12-02T07:39:00Z,26.4494,-90.7832,8.8,27.1,11111222
Shell,ioos:station:wmo:42906:2,2021-12-02T07:49:00Z,26.4494,-90.7832,8.9,27.1,11111222
Shell,ioos:station:wmo:42906:2,2021-12-02T07:59:00Z,26.4494,-90.7832,8.9,27.1,11111222
Shell,ioos:station:wmo:42906:2,2021-12-02T08:09:00Z,26.4494,-90.7832,8.7,27.1,11111222
Shell,ioos:station:wmo:42906:2,2021-12-02T08:19:00Z,26.4494,-90.7832,8.6,27.1,11111222
Shell,ioos:station:wmo:42906:2,2021-12-02T08:29:00Z,26.4494,-90.7832,8.5,27.1,11111222
Shell,ioos:station:wmo:42906:2,2021-12-02T08:39:00Z,26.4494,-90.7832,8.6,27.1,11111222
Shell,ioos:station:wmo:42906:2,2021-12-02T08:49:00Z,26.4494,-90.7832,8.8,27.1,11111222
Shell,ioos:station:wmo:42906:2,2021-12-02T08:59:00Z,26.4494,-90.7832,8.8,27.1,11111222
Shell,ioos:station:wmo:42906:2,2021-12-02T09:09:00Z,26.4494,-90.7832,8.8,27.1,11111222
Shell,ioos:station:wmo:42906:2,2021-12-02T09:19:00Z,26.4494,-90.7832,8.8,27.1,11111222
Shell,ioos:station:wmo:42906:2,2021-12-02T09:29:00Z,26.4494,-90.7832,8.8,27.1,11111222
Shell,ioos:station:wmo:42906:2,2021-12-02T09:39:00Z,26.4494,-90.7832,8.9,27.1,11111222
Shell,ioos:station:wmo:42906:2,2021-12-02T09:49:00Z,26.4494,-90.7832,8.9,27.1,11111222
Shell,ioos:station:wmo:42906:2,2021-12-02T09:59:00Z,26.4494,-90.7832,8.9,27.1,11111222
Shell,ioos:station:wmo:42906:2,2021-12-02T10:09:00Z,26.4494,-90.7832,9.0,27.1,11111222
Shell,ioos:station:wmo:42906:2,2021-12-02T10:19:00Z,26.4494,-90.7832,9.0,27.1,11111222
Shell,ioos:station:wmo:42906:2,2021-12-02T10:29:00Z,26.4494,-90.7832,9.1,27.1,11111222
Shell,ioos:station:wmo:42906:2,2021-12-02T10:39:00Z,26.4494,-90.7832,9.0,27.1,11111222
Shell,ioos:station:wmo:42906:2,2021-12-02T10:49:00Z,26.4494,-90.7832,8.9,27.1,11111222
Shell,ioos:station:wmo:42906:2,2021-12-02T10:59:00Z,26.4494,-90.7832,8.9,27.1,11111222
Shell,ioos:station:wmo:42906:2,2021-12-02T11:09:00Z,26.4494,-90.7832,8.9,27.1,11111222
Shell,ioos:station:wmo:42906:2,2021-12-02T11:19:00Z,26.4494,-90.7832,8.9,27.1,11111222
Shell,ioos:station:wmo:42906:2,2021-12-02T11:29:00Z,26.4494,-90.7832,8.9,27.1,11111222
Shell,ioos:station:wmo:42906:2,2021-12-02T11:39:00Z,26.4494,-90.7832,8.9,27.1,11111222
Shell,ioos:station:wmo:42906:2,2021-12-02T11:49:00Z,26.4494,-90.7832,9.0,27.1,11111222
Shell,ioos:station:wmo:42906:2,2021-12-02T11:59:00Z,26.4494,-90.7832,9.0,27.1,11111222
Shell,ioos:station:wmo:42906:2,2021-12-02T12:09:00Z,26.4494,-90.7832,9.0,27.1,11111222
Shell,ioos:station:wmo:42906:2,2021-12-02T12:19:00Z,26.4494,-90.7832,9.0,27.1,11111222
Shell,ioos:station:wmo:42906:2,2021-12-02T12:29:00Z,26.4494,-90.7832,9.0,27.1,11111222
Shell,ioos:station:wmo:42906:2,2021-12-02T12:39:00Z,26.4494,-90.7832,8.9,27.1,11111222
Shell,ioos:station:wmo:42906:2,2021-12-02T12:49:00Z,26.4494,-90.7832,9.0,27.1,11111222
Shell,ioos:station:wmo:42906:2,2021-12-02T12:59:00Z,26.4494,-90.7832,9.2,27.1,11111222
Shell,ioos:station:wmo:42906:2,2021-12-02T13:09:00Z,26.4494,-90.7832,9.3,27.1,11111222
Shell,ioos:station:wmo:42906:2,2021-12-02T13:19:00Z,26.4494,-90.7832,9.1,27.1,11111222
Shell,ioos:station:wmo:42906:2,2021-12-02T13:30:00Z,26.4494,-90.7832,8.9,27.1,11111222
Shell,ioos:station:wmo:42906:2,2021-12-02T13:40:00Z,26.4494,-90.7832,8.8,27.1,11111222
Shell,ioos:station:wmo:42906:2,2021-12-02T13:50:00Z,26.4494,-90.7832,8.8,27.1,11111222
Shell,ioos:station:wmo:42906:2,2021-12-02T14:00:00Z,26.4494,-90.7832,9.1,27.1,11111222
Shell,ioos:station:wmo:42906:2,2021-12-02T14:10:00Z,26.4494,-90.7832,9.2,27.1,11111222
Shell,ioos:station:wmo:42906:2,2021-12-02T14:20:00Z,26.4494,-90.7832,9.2,27.1,11111222
Shell,ioos:station:wmo:42906:2,2021-12-02T14:30:00Z,26.4494,-90.7832,9.3,27.1,11111222
Shell,ioos:station:wmo:42906:2,2021-12-02T14:40:00Z,26.4494,-90.7832,9.3,27.1,11111222
Shell,ioos:station:wmo:42906:2,2021-12-02T14:50:00Z,26.4494,-90.7832,9.2,27.1,11111222
Shell,ioos:station:wmo:42906:2,2021-12-02T15:00:00Z,26.4494,-90.7832,9.2,27.1,11111222
Shell,ioos:station:wmo:42906:2,2021-12-02T15:10:00Z,26.4494,-90.7832,9.3,27.1,11111222
Shell,ioos:station:wmo:42906:2,2021-12-02T15:20:00Z,26.4494,-90.7832,9.2,27.1,11111222
Shell,ioos:station:wmo:42906:2,2021-12-02T15:30:00Z,26.4494,-90.7832,9.2,27.1,11111222
Shell,ioos:station:wmo:42906:2,2021-12-02T15:40:00Z,26.4494,-90.7832,9.2,27.1,11111222
Shell,ioos:station:wmo:42906:2,2021-12-02T15:50:00Z,26.4494,-90.7832,9.2,27.1,11111222
Shell,ioos:station:wmo:42906:2,2021-12-02T16:00:00Z,26.4494,-90.7832,9.1,27.1,11111222
Shell,ioos:station:wmo:42906:2,2021-12-02T16:10:00Z,26.4494,-90.7832,9.1,27.1,11111222
Shell,ioos:station:wmo:42906:2,2021-12-02T16:20:00Z,26.4494,-90.7832,9.2,27.1,11111222
Shell,ioos:station:wmo:42906:2,2021-12-02T16:30:00Z,26.4494,-90.7832,9.3,27.1,11111222
Shell,ioos:station:wmo:42906:2,2021-12-02T16:40:00Z,26.4494,-90.7832,9.3,27.1,11111222
Shell,ioos:station:wmo:42906:2,2021-12-02T16:50:00Z,26.4494,-90.7832,9.2,27.1,11111222
Shell,ioos:station:wmo:42906:2,2021-12-02T17:00:00Z,26.4494,-90.7832,9.3,27.1,11111222
Shell,ioos:station:wmo:42906:2,2021-12-02T17:10:00Z,26.4494,-90.7832,9.3,27.1,11111222
Shell,ioos:station:wmo:42906:2,2021-12-02T17:20:00Z,26.4494,-90.7832,9.3,27.1,11111222
Shell,ioos:station:wmo:42906:2,2021-12-02T17:30:00Z,26.4494,-90.7832,9.4,27.1,11111222
Shell,ioos:station:wmo:42906:2,2021-12-02T17:40:00Z,26.4494,-90.7832,9.3,27.1,11111222
Shell,ioos:station:wmo:42906:2,2021-12-02T17:50:00Z,26.4494,-90.7832,9.2,27.1,11111222
Shell,ioos:station:wmo:42906:2,2021-12-02T18:00:00Z,26.4494,-90.7832,9.2,27.1,11111222
Shell,ioos:station:wmo:42906:2,2021-12-02T18:10:00Z,26.4494,-90.7832,9.3,27.1,11111222
Shell,ioos:station:wmo:42906:2,2021-12-02T18:20:00Z,26.4494,-90.7832,9.3,27.2,11111222
Shell,ioos:station:wmo:42906:2,2021-12-02T18:30:00Z,26.4494,-90.7832,9.3,27.2,11111222
Shell,ioos:station:wmo:42906:2,2021-12-02T18:40:00Z,26.4494,-90.7832,9.3,27.2,11111222
Shell,ioos:station:wmo:42906:2,2021-12-02T18:50:00Z,26.4494,-90.7832,9.1,27.2,11111222
Shell,ioos:station:wmo:42906:2,2021-12-02T19:00:00Z,26.4494,-90.7832,9.1,27.2,11111222
Shell,ioos:station:wmo:42906:2,2021-12-02T19:10:00Z,26.4494,-90.7832,9.4,27.2,11111222
Shell,ioos:station:wmo:42906:2,2021-12-02T19:20:00Z,26.4494,-90.7832,9.4,27.2,11111222
Shell,ioos:station:wmo:42906:2,2021-12-02T19:30:00Z,26.4494,-90.7832,9.4,27.2,11111222
Shell,ioos:station:wmo:42906:2,2021-12-02T19:40:00Z,26.4494,-90.7832,9.4,27.2,11111222
Shell,ioos:station:wmo:42906:2,2021-12-02T19:50:00Z,26.4494,-90.7832,9.4,27.2,11111222
Shell,ioos:station:wmo:42906:2,2021-12-02T20:00:00Z,26.4494,-90.7832,9.3,27.2,11111222
Shell,ioos:station:wmo:42906:2,2021-12-02T20:10:00Z,26.4494,-90.7832,9.1,27.2,11111222
Shell,ioos:station:wmo:42906:2,2021-12-02T20:20:00Z,26.4494,-90.7832,9.1,27.2,11111222
Shell,ioos:station:wmo:42906:2,2021-12-02T20:30:00Z,26.4494,-90.7832,9.1,27.2,11111222
Shell,ioos:station:wmo:42906:2,2021-12-02T20:40:00Z,26.4494,-90.7832,9.1,27.2,11111222
Shell,ioos:station:wmo:42906:2,2021-12-02T20:51:00Z,26.4494,-90.7832,9.1,27.2,11111222
Shell,ioos:station:wmo:42906:2,2021-12-02T21:01:00Z,26.4494,-90.7832,9.1,27.2,11111222
Shell,ioos:station:wmo:42906:2,2021-12-02T21:11:00Z,26.4494,-90.7832,9.1,27.2,11111222